Wise, VA

3:22 AM EST on November 19, 2019 (GMT -0500)
Lonesome Pine

Weather History for KLNP - September, 2019

Change the Weather History Date:

Wednesday, September 11, 2019

  Actual Average Record
Temperature  
Mean Temperature 78 °F -  
Max Temperature 87 °F 73 °F 87 °F (2019)
Min Temperature 68 °F 54 °F 50 °F (1998)
Cooling Degree Days 12    
Growing Degree Days 28 (Base 50)    
Moisture  
Dew Point 62 °F    
Average Humidity 63    
Maximum Humidity 88    
Minimum Humidity 33    
Precipitation  
Precipitation 0.00 in - - ()
Sea Level Pressure  
Sea Level Pressure 30.35 in    
Wind  
Wind Speed 4 mph (SW)    
Max Wind Speed 10 mph    
Max Gust Speed -    
Visibility 10 miles    
Events Thunderstorm    
Averages and records for this station are not official NWS values.
T = Trace of Precipitation, MM = Missing Value Source: NWS Daily Summary

Daily Weather History Graph

Daily Weather History Graph

Search for Another Location

Airport or City:

Astronomy

Sep. 11, 2019 Rise Set
Actual Time 7:08 AM EDT 7:44 PM EDT
Civil Twilight 6:42 AM EDT 8:10 PM EDT
Nautical Twilight 6:11 AM EDT 8:40 PM EDT
Astronomical Twilight 5:40 AM EDT 9:12 PM EDT
Moon 6:51 PM EDT (9/11) 4:35 AM EDT (9/11)
Length of Visible Light 13h 27m
Length of Day
12h 35m
Waxing Gibbous, 94% of the Moon is Illuminated
Sep 11
Waxing Gibbous
Sep 14
Full
Sep 21
Last Quarter
Sep 28
New
Oct 5
First Quarter

Hourly Weather History & Observations

Time (EDT) Temp. Heat Index Dew Point Humidity Pressure Visibility Wind Dir Wind Speed Gust Speed Precip Events Conditions
12:15 AM 71.6 °F - 60.8 °F 69% 30.37 in 10.0 mi SSW 6.9 mph - N/A   Clear
12:55 AM 71.6 °F - 60.8 °F 69% 30.37 in 10.0 mi SW 5.8 mph - N/A   Clear
1:15 AM 71.6 °F - 60.8 °F 69% 30.37 in 10.0 mi SSW 5.8 mph - N/A   Clear
1:30 AM 71.6 °F - 60.8 °F 69% 30.37 in 10.0 mi SW 5.8 mph - N/A   Clear
1:55 AM 71.6 °F - 60.8 °F 69% 30.37 in 10.0 mi SW 5.8 mph - N/A   Clear
2:20 AM 71.6 °F - 60.8 °F 69% 30.36 in 10.0 mi SW 4.6 mph - N/A   Clear
2:35 AM 69.8 °F - 60.8 °F 73% 30.36 in 10.0 mi SSW 6.9 mph - N/A   Clear
2:55 AM 69.8 °F - 60.8 °F 73% 30.36 in 10.0 mi SW 5.8 mph - N/A   Clear
3:15 AM 69.8 °F - 60.8 °F 73% 30.36 in 10.0 mi SSW 4.6 mph - N/A   Clear
3:35 AM 68.0 °F - 60.8 °F 78% 30.36 in 10.0 mi SSW 4.6 mph - N/A   Clear
3:55 AM 69.8 °F - 60.8 °F 73% 30.36 in 10.0 mi SW 3.5 mph - N/A   Clear
4:15 AM 68.0 °F - 62.6 °F 83% 30.36 in 10.0 mi SW 4.6 mph - N/A   Clear
4:35 AM 68.0 °F - 62.6 °F 83% 30.35 in 10.0 mi SW 5.8 mph - N/A   Clear
4:55 AM 68.0 °F - 60.8 °F 78% 30.35 in 10.0 mi SW 6.9 mph - N/A   Clear
5:15 AM 68.0 °F - 60.8 °F 78% 30.35 in 10.0 mi SW 4.6 mph - N/A   Clear
5:35 AM 68.0 °F - 62.6 °F 83% 30.36 in 10.0 mi SSW 3.5 mph - N/A   Clear
5:55 AM 68.0 °F - 62.6 °F 83% 30.37 in 10.0 mi SSW 3.5 mph - N/A   Clear
6:15 AM 69.8 °F - 62.6 °F 78% 30.37 in 10.0 mi Calm Calm - N/A   Clear
6:35 AM 69.8 °F - 62.6 °F 78% 30.37 in 10.0 mi SE 3.5 mph - N/A   Clear
6:55 AM 71.6 °F - 62.6 °F 73% 30.38 in 10.0 mi Calm Calm - N/A   Clear
7:15 AM 68.0 °F - 62.6 °F 83% 30.39 in 10.0 mi Calm Calm - N/A   Clear
7:35 AM 69.8 °F - 62.6 °F 78% 30.40 in 10.0 mi Calm Calm - N/A   Clear
7:55 AM 69.8 °F - 62.6 °F 78% 30.40 in 10.0 mi Calm Calm - N/A   Clear
8:15 AM 69.8 °F - 66.2 °F 88% 30.40 in 10.0 mi Calm Calm - N/A   Clear
8:35 AM 71.6 °F - 64.4 °F 78% 30.41 in 10.0 mi Calm Calm - N/A   Clear
8:55 AM 73.4 °F - 62.6 °F 69% 30.41 in 10.0 mi SW 4.6 mph - N/A   Clear
9:35 AM 77.0 °F - 62.6 °F 61% 30.42 in 10.0 mi WSW 5.8 mph - N/A   Clear
9:55 AM 78.8 °F - 62.6 °F 57% 30.42 in 10.0 mi SW 8.1 mph - N/A   Clear
10:15 AM 78.8 °F - 62.6 °F 57% 30.41 in 10.0 mi WSW 4.6 mph - N/A   Clear
10:35 AM 80.6 °F 81.8 °F 62.6 °F 54% 30.42 in 10.0 mi WSW 6.9 mph - N/A   Clear
10:55 AM 80.6 °F 81.8 °F 62.6 °F 54% 30.41 in 10.0 mi WNW 4.6 mph - N/A   Clear
11:15 AM 82.4 °F 83.4 °F 62.6 °F 51% 30.41 in 10.0 mi WSW 4.6 mph - N/A   Clear
11:35 AM 82.4 °F 83.4 °F 62.6 °F 51% 30.40 in 10.0 mi Calm Calm - N/A   Scattered Clouds
11:55 AM 84.2 °F 85.0 °F 62.6 °F 48% 30.39 in 10.0 mi Calm Calm - N/A   Mostly Cloudy
12:15 PM 86.0 °F 86.6 °F 62.6 °F 45% 30.39 in 10.0 mi SW 5.8 mph - N/A   Scattered Clouds
12:35 PM 86.0 °F 86.1 °F 60.8 °F 43% 30.38 in 10.0 mi WSW 6.9 mph - N/A   Mostly Cloudy
12:55 PM 86.0 °F 86.6 °F 62.6 °F 45% 30.38 in 10.0 mi NE 3.5 mph - N/A   Overcast
1:15 PM 87.8 °F 87.6 °F 60.8 °F 40% 30.37 in 10.0 mi WSW 9.2 mph - N/A   Mostly Cloudy
1:35 PM 87.8 °F 86.1 °F 55.4 °F 33% 30.36 in 10.0 mi WSW 3.5 mph - N/A   Scattered Clouds
1:55 PM 87.8 °F 87.1 °F 59.0 °F 38% 30.35 in 10.0 mi SW 9.2 mph - N/A   Scattered Clouds
2:15 PM 86.0 °F 86.1 °F 60.8 °F 43% 30.36 in 10.0 mi NW 10.4 mph - N/A   Mostly Cloudy
2:35 PM 86.0 °F 86.6 °F 62.6 °F 45% 30.35 in 10.0 mi NW 4.6 mph - N/A   Overcast
2:55 PM 86.0 °F 86.1 °F 60.8 °F 43% 30.33 in 10.0 mi WSW 6.9 mph - N/A   Mostly Cloudy
3:15 PM 86.0 °F 86.1 °F 60.8 °F 43% 30.33 in 10.0 mi West 6.9 mph - N/A   Mostly Cloudy
3:35 PM 82.4 °F 82.9 °F 60.8 °F 48% 30.33 in 10.0 mi WSW 4.6 mph - N/A   Mostly Cloudy
3:55 PM 86.0 °F 86.1 °F 60.8 °F 43% 30.32 in 10.0 mi WSW 6.9 mph - N/A   Scattered Clouds
4:15 PM 87.8 °F 86.5 °F 57.2 °F 35% 30.31 in 10.0 mi SW 9.2 mph - N/A   Scattered Clouds
4:35 PM 86.0 °F 85.4 °F 59.0 °F 40% 30.30 in 10.0 mi SW 6.9 mph - N/A   Clear
4:55 PM 84.2 °F 84.4 °F 60.8 °F 45% 30.30 in 10.0 mi SW 5.8 mph - N/A   Clear
5:15 PM 84.2 °F 84.4 °F 60.8 °F 45% 30.29 in 10.0 mi SW 4.6 mph - N/A   Clear
5:35 PM 86.0 °F 86.1 °F 60.8 °F 43% 30.29 in 10.0 mi SW 4.6 mph - N/A   Clear
5:55 PM 82.4 °F 82.9 °F 60.8 °F 48% 30.29 in 10.0 mi SSW 3.5 mph - N/A   Clear
6:15 PM 80.6 °F 81.5 °F 60.8 °F 51% 30.28 in 10.0 mi Calm Calm - N/A   Clear
6:35 PM 80.6 °F 81.8 °F 62.6 °F 54% 30.28 in 10.0 mi Calm Calm - N/A   Clear
6:55 PM 78.8 °F - 62.6 °F 57% 30.28 in 10.0 mi Calm Calm - N/A Thunderstorm Scattered Clouds
7:15 PM 80.6 °F 81.8 °F 62.6 °F 54% 30.28 in 10.0 mi Calm Calm - N/A   Mostly Cloudy
7:55 PM 78.8 °F - 64.4 °F 61% 30.28 in 10.0 mi WSW 5.8 mph - N/A   Mostly Cloudy
8:15 PM 75.2 °F - 64.4 °F 69% 30.28 in 10.0 mi SSW 3.5 mph - N/A   Scattered Clouds
8:35 PM 73.4 °F - 64.4 °F 73% 30.29 in 10.0 mi SW 3.5 mph - N/A   Clear
8:55 PM 75.2 °F - 64.4 °F 69% 30.29 in 10.0 mi Calm Calm - N/A   Clear
9:15 PM 73.4 °F - 64.4 °F 73% 30.30 in 10.0 mi Calm Calm - N/A   Clear
9:35 PM 75.2 °F - 64.4 °F 69% 30.29 in 10.0 mi Calm Calm - N/A   Scattered Clouds
9:55 PM 75.2 °F - 64.4 °F 69% 30.30 in 10.0 mi Calm Calm - N/A   Scattered Clouds
10:15 PM 75.2 °F - 62.6 °F 65% 30.30 in 10.0 mi Calm Calm - N/A   Clear
10:35 PM 73.4 °F - 64.4 °F 73% 30.30 in 10.0 mi Calm Calm - N/A   Scattered Clouds
10:55 PM 71.6 °F - 64.4 °F 78% 30.30 in 10.0 mi Calm Calm - N/A   Clear
11:15 PM 73.4 °F - 64.4 °F 73% 30.30 in 10.0 mi Calm Calm - N/A   Clear
11:35 PM 71.6 °F - 64.4 °F 78% 30.30 in 10.0 mi Calm Calm - N/A   Clear
11:55 PM 71.6 °F - 64.4 °F 78% 30.30 in 10.0 mi SW 3.5 mph - N/A   Clear